[ hide orbit diagram ]
For accurate long-term ephemerides, please instead use our Horizons system.This orbit viewer was implemented using two-body methods, and hence should not be used for determining accurate long-term trajectories (over several years or decades) or planetary encounter circumstances.
Orbital Elements at Epoch 2459200.5 (2020-Dec-17.0) TDB
Reference: JPL 30 (heliocentric ecliptic J2000)
Element | Value | Uncertainty (1-sigma) | Units |
e | .1083689518553454 | 4.7764e-08 | |
a | 2.364936993915195 | 1.0369e-08 | au |
q | 2.108651250680674 | 1.1057e-07 | au |
i | 5.959663817345174 | 3.676e-06 | deg |
node | 272.8387524127423 | 4.7063e-05 | deg |
peri | 97.92856652593176 | 5.036e-05 | deg |
M | 236.84425004908 | 1.7947e-05 | deg |
tp | 2459654.943589545550 (2022-Mar-16.44358955) | 6.7028e-05 | TDB |
period | 1328.396703374352 3.64 | 8.7362e-06 2.392e-08 | d yr |
n | .2710033825630094 | 1.7822e-09 | deg/d |
Q | 2.621222737149716 | 1.1492e-08 | au |
|
| | Orbit Determination Parameters
Additional Information
|
[ show covariance matrix ]
Physical Parameter Table
Parameter |
Symbol |
Value |
Units |
Sigma |
Reference |
Notes |
absolute magnitude |
H |
15.44 |
|
n/a |
E2021B10 |
|
|
58496 (1996 UY3) Discovered 1996-Oct-29 by BAO Schmidt CCD Asteroid Program at Xinglong |
Reference: 20030614/Numbers.arc | Last Updated: 2004-04-19 |
|
[ show close-approach data ]
|